www.pogodaiklimat.ru
ПОГОДА в Гузаре

Архив погоды в Гузаре (Кашкадарьинская область, Узбекистан)

Время
(UTC), дата
15 13.04
18 13.04
21 13.04
00 14.04
03 14.04
06 14.04
09 14.04
12 14.04
15 14.04
18 14.04
21 14.04
00 15.04
03 15.04
06 15.04
09 15.04
12 15.04
15 15.04
18 15.04
21 15.04
00 16.04
03 16.04
06 16.04
09 16.04
12 16.04
15 16.04
18 16.04
21 16.04
00 17.04
03 17.04
06 17.04
09 17.04
12 17.04
15 17.04
18 17.04
21 17.04
00 18.04
03 18.04
06 18.04
09 18.04
12 18.04
15 18.04
18 18.04
21 18.04
00 19.04
03 19.04
06 19.04
09 19.04
12 19.04
15 19.04
18 19.04
21 19.04
00 20.04
03 20.04
06 20.04
09 20.04
12 20.04
Ветер
(напр.,м/с)
Видим. Явления Облачность Т
(С)
Тd
(С)
f
(%)
Тe
(С)
Тes
(С)
Комфортность P
(гПа)
Po
(гПа)
Тmin
(С)
Tmax
(С)
R
(мм)
R24
(мм)
S
(см)
З 2 н/о 8/8
[Cb cap Ac lent]
+16.0 +11.5 75 +16 +16 1013.7 953.5 +19.1
Ю 1 н/о ясно +13.2 +9.3 77 +13 +13 1015.4 954.5 +19.1
В 1 н/о 8/0
[Ac trans]
+13.4 +9.9 79 +14 +14 1015.1 954.3
З 1 н/о 9/0
[Ac lent]
+12.8 +9.9 83 +13 +13 1015.6 954.6
СВ 1 10 км 9/9 600 м
[Cb cap Ac trans]
+13.4 +10.2 81 +14 +14 1015.8 954.9
С 2 10 км 9/9 600 м
[Cb cap Ac lent]
+15.5 +12.9 84 +15 +17 1014.5 954.2
С 3 10 км 9/9 600 м
[Cb cap Ac trans]
+17.7 +15.5 87 +18 +19 1012.8 953.1
С 2 10 км 9/9 600 м
[Cb cap Ac trans]
+18.3 +15.2 82 +19 +20 1011.5 952.0
С 2 н/о 9/9
[Cb cap Ac trans]
+16.4 +13.7 84 +17 +17 1012.0 952.0 +18.5
ЮВ 1 н/о 9/9
[Cb cap Ac trans]
+15.2 +13.0 87 +16 +16 1011.7 951.5 +18.5
З 2 н/о слаб. ливневой дождь 9/9
[Cb cap]
+14.1 +12.3 89 +14 +14 1012.0 951.5
ЮЗ 1 н/о в посл. час ливневой дождь 9/9
[Cb cap]
+13.7 +12.4 92 +14 +14 1012.8 952.2
ЮЗ 2 10 км слаб. ливневой дождь 9/9 600 м
[Cb cap]
+12.9 +11.0 88 +12 +12 1013.9 953.1
З 3 10 км слаб. ливневой дождь 9/9 600 м
[Cb cap]
+12.1 +9.9 86 +10 +12 1017.8 956.6
Ю 2 10 км слаб. ливневой дождь 9/9 600 м
[Cb cap]
+12.2 +10.5 89 +11 +13 1017.8 956.6
З 2 10 км {ливн. дождь} 9/9 600 м
[Cb cap Ac lent]
+13.3 +10.9 85 +13 +13 1020.7 959.5
З 1 н/о 8/8
[Cb cap Ac lent]
+12.4 +9.9 85 +12 +12 1021.7 960.3 +13.5
В 1 н/о 6/6
[Cb cap Ac trans]
+10.5 +8.0 84 +10 +10 1022.9 961.0 +13.5
ЮЗ 1 н/о 9/9
[Cb cap Ac trans]
+11.2 +8.8 85 +11 +11 1023.8 962.0
ЮЗ 1 н/о 8/8
[Cb cap Ac trans]
+9.9 +7.6 86 +9 +9 1024.9 962.7
С 2 10 км 8/8 600 м
[Cb cap Ac trans]
+10.7 +8.2 85 +9 +10 1024.1 962.2
В 2 50 км 4/0 <50 м
[Ci sp]
+16.1 +12.5 79 +16 +28 опасность простуды 1022.9 962.2
З 5 10 км 9/9 600 м
[Cb cap Ac trans]
+18.2 +13.4 74 +18 +19 1022.9 962.7
З 3 10 км 9/9 600 м
[Cb cap Ac trans]
+19.0 +13.2 69 +20 +21 1022.3 962.2
В 2 н/о ясно +16.2 +11.4 73 +16 +16 1022.5 961.8 +19.3
ЮВ 1 н/о ясно +12.8 +9.0 78 +13 +13 1022.8 961.4 +19.3
Ю 1 н/о 3/0
[Ac trans]
+11.2 +8.4 83 +11 +11 1021.7 960.0
ЮВ 2 н/о ясно +10.9 +8.9 87 +10 +10 1020.3 958.6
ЮВ 2 20 км 4/0 <50 м
[Ac trans Ci sp]
+14.6 +11.4 81 +14 +17 1019.4 958.6
В 2 50 км 8/0 <50 м
[Ac trans Ci sp]
+20.8 +15.8 73 +25 +33 комфорт 1017.4 958.1
С 2 50 км 8/0 <50 м
[Ac trans Ci sp]
+23.0 +16.3 66 +28 +36 душно 1014.0 955.3
С 2 50 км 9/0 <50 м
[Ac trans Ci sp]
+23.9 +15.9 61 +27 +29 жарко 1011.7 953.3
С 1 н/о 8/0
[Ac trans Ci sp]
+19.5 +12.2 63 +22 +22 комфорт 1012.4 953.0 +24.3
ЮЗ 1 н/о ясно +15.5 +9.3 67 +16 +16 1013.6 953.4 +24.3
Ю 1 н/о ясно +13.0 +7.4 69 +13 +13 1012.8 952.0
ЮВ 2 н/о ясно +15.1 +9.3 68 +15 +15 1011.3 951.1
Ю 2 20 км 8/0 <50 м
[Ac trans Ci sp]
+17.7 +11.3 66 +18 +20 1010.3 950.6
З 1 50 км 4/0 <50 м
[Ci sp]
+24.6 +15.9 58 +28 +42 душно 1008.0 950.0
З 2 50 км 6/0 <50 м
[Ac trans]
+26.4 +16.9 56 +30 +40 душно 1006.7 949.2
СЗ 2 50 км 8/0 <50 м
[Ac trans]
+25.5 +14.5 51 +28 +30 жарко 1006.3 948.5
ЮЗ 1 н/о 4/0
[Ac trans]
+21.3 +11.0 52 +23 +23 комфорт 1006.8 948.1 +26.7
Ю 2 н/о 6/0
[Ac trans]
+19.3 +10.0 55 +21 +21 комфорт 1007.2 948.1 +26.7
Ю 3 н/о 8/0
[Ac trans]
+18.4 +10.2 59 +19 +19 1007.7 948.4
В 1 н/о 9/0
[Ac lent]
+18.2 +10.6 61 +20 +20 1006.1 946.9
В 1 10 км 9/9 600 м
[Cb cap]
+17.6 +8.9 57 +19 +19 1006.3 946.9
ЮВ 1 10 км 9/9 600 м
[Cb cap Ac trans]
+22.1 +11.8 52 +24 +26 комфорт 1006.7 948.2
ЮЗ 2 10 км 9/9 600 м
[Cb cap Ac trans]
+25.3 +13.6 48 +27 +29 жарко 1004.9 947.2
СВ 3 10 км 9/9 600 м
[Cb cap Ac trans]
+24.0 +11.4 45 +25 +26 комфорт 1005.2 947.2
СВ 1 н/о 9/9
[Cb cap Ac trans]
+21.5 +10.2 49 +23 +23 комфорт 1005.3 946.7 +25.6
ЮВ 2 н/о 6/0
[Ac trans]
+18.8 +8.9 53 +20 +20 1006.1 946.9 +25.6
Ю 3 н/о 8/0
[Ac trans]
+19.0 +10.0 56 +20 +20 1006.0 946.9
Ю 2 н/о ясно +16.7 +9.0 60 +17 +17 1006.5 946.9
Ю 3 20 км 8/0 <50 м
[Ac trans]
+18.6 +10.4 59 +19 +21 1007.6 948.3
ЮЗ 2 50 км 8/0
[Ac trans Ci]
+25.6 +15.6 54 +29 +37 душно 1008.2 950.4
З 2 10 км 8/8 600 м
[Cb cap Ac trans]
+27.3 +14.8 46 +30 +33 душно 1007.9 950.4
В 4 10 км 9/9 600 м
[Cb cap Ac trans]
+25.3 +12.3 44 +27 +27 жарко 1008.3 950.3
Местоположение метеостанции Гузар (Кашкадарьинская область, Узбекистан): широта 38.62 долгота 66.27 высота над уровнем моря 524 м.
В архиве по умолчанию представлена погода в Гузаре за последнюю неделю. Архивные данные за месяц целиком и за предыдущие месяцы, начиная с января 2011 года, Вы можете получить, выбрав интересующий диапазон дат из раскрывающегося списка и нажав кнопку "Найти!".
*Определитесь, кто Вы:
Внимание! Время в таблицах - всемирное. Для получения местного времени необходимо прибавить поправку, которая равна 5 ч.
Некоторые строки с данными для отдельных станций могут быть выделены курсивом. Это означает, что фактические данные отсутствуют по различным причинам, а приведенные значения являются расчетными модельными данными для данного пункта наблюдений.
Смотрите также архив погоды в соседних городах и на ближайших метеорологических станциях:
Партнеры нашего сайта:      
Пояснения к столбцам:
  • Ветер - указаны скорость ветра в м/с - средняя за 10 мин, порывы в срок и между сроками (в фигурных скобках) и направление, откуда дует ветер: С - северный,
  • СВ - северо-восточный, В - восточный, ЮВ - юго-восточный, Ю - южный, ЮЗ - юго-западный, З - западный, СЗ - северо-западный.
  • Видимость - горизонтальная дальность видимости в метрах или километрах. При видимости от 1 до 10 км при отсутствии осадков обычно наблюдается дымка, при ухудшении видимости до 1 км и менее - туман. В сухую погоду видимость может ухудшаться дымом, пылью или мглою.
  • Явления - указаны атмосферные явления, наблюдавшиеся в срок или в последний час перед сроком; фигурными скобками обозначены явления, наблюдавшиеся между сроками (за 1-3 часа до срока); квадратными скобками обозначены град или гололедные отложения с указанием их диаметра в мм.
  • Облачность - указаны через наклонную черту общая и нижняя облачность в баллах и высота нижней границы облаков в метрах; квадратными скобками обозначены формы облаков: Ci - перистые, Cs - перисто-слоистые, Cc - перисто-кучевые, Ac - высококучевые, As - высокослоистые, Sc - слоисто-кучевые, Ns - слоисто-дождевые, Cu - кучевые, Cb - кучево-дождевые. Подробнее классификацию облаков см. в Атласе облаков (PDF).
  • T - Температура воздуха - температура, измеренная на высоте 2 м над землей.
  • Td - Температура точки росы - температура, при понижении до которой содержащийся в воздухе водяной пар достигнет насыщения.
  • f - Относительная влажность воздуха - влажноcть воздуха, измеренная на высоте 2 м над землей.
  • Te - Эффективная температура - температура, которую ощущает одетый по сезону человек в тени. Характеристика душности погоды. При расчете учитывается влияние влажности воздуха и скорости ветра на теплоощущения человека.
  • Tes - Эффективная температура на солнце - температура, которую ощущает человек, с поправкой на солнечный нагрев. Характеристика знойности погоды. Зависит от высоты солнца над горизонтом, облачности и скорости ветра. Ночью, в пасмурную погоду, а также при ветре 12 м/с и более поправка равна нулю.
  • P - Атмосферное давление - приведенное к уровню моря атмосферное давление.
  • Po - Атмосферное давление - измеренное на уровне метеостанции атмосферное давление.
  • Tmin - Минимальная температура - минимум температуры воздуха на высоте 2 м над землей.
  • Tmax - Максимальная температура - максимум температуры воздуха на высоте 2 м над землей.
  • R - Количество осадков - Количество выпавших осадков за период времени, мм. При наведении курсора мыши на число - период времени, за который выпало указанное количество осадков.
  • R24 - Количество осадков - Количество выпавших осадков за 24 часа, мм.
  • S - Снежный покров - Высота снежного покрова, см. При наведении курсора мыши на число - состояние снежного покрова и степень покрытия местности в баллах.